Visibility
14.1 15.0 15.0 15.0 14.9 14.6 10.9 13.7 15.0 15.0 14.8 15.0 13.8 10.9 8.8 13.3 13.1 3.6 2.6 8.9 0.1 0.1 11.5 9.0 11.9 15.0 14.0 9.2 2.4 12.1 0.1 0.1 0.0 0.7 2.6 2.9 10.6 15.0 15.0 11.2 15.0 14.7 15.0 14.8 15.0 4.0 0.8 15.0 15.0 15.0 15.0 15.0 15.0 15.0
11.7 14.9 15.0 15.0 15.0 14.9 15.0 15.0 15.0 15.0 14.2 8.4 11.8 15.0 10.6 9.5 8.4 6.0 0.1 8.5 15.0 0.9 3.5 15.0 15.0 8.9 14.9 11.2 6.2 9.5 13.6 2.0 4.1 3.6 4.3 3.0 15.0 15.0 15.0 15.0 15.0 10.9 15.0 1.1 14.2 15.0 15.0 15.0 15.0 15.0 15.0 15.0 15.0 15.0
15.0 15.0 15.0 15.0 15.0 15.0 15.0 15.0 15.0 15.0 15.0 15.0 14.7 14.9 14.8 6.0 9.6 5.4 5.3 14.7 0.4 0.0 0.4 9.2 0.1 15.0 15.0 12.2 15.0 3.0 8.1 9.0 13.7 12.6 1.3 3.5 13.2 15.0 15.0 15.0 15.0 15.0 15.0 15.0 15.0 15.0 15.0 15.0 15.0 15.0 15.0 15.0 15.0 15.0
13.8 15.0 15.0 15.0 15.0 15.0 13.2 15.0 15.0 15.0 15.0 14.6 13.3 6.4 15.0 14.9 7.5 6.6 1.8 12.0 3.7 0.1 0.0 9.1 15.0 13.3 15.0 8.9 12.7 15.0 8.8 14.2 15.0 10.4 10.8 14.1 10.8 15.0 5.2 14.6 15.0 15.0 15.0 15.0 15.0 15.0 15.0 15.0 15.0 15.0 15.0 15.0 15.0 15.0
14.2 15.0 15.0 15.0 15.0 15.0 15.0 14.6 15.0 15.0 13.6 14.6 15.0 13.5 14.7 15.0 9.6 4.2 10.0 11.6 15.0 13.2 1.7 15.0 15.0 15.0 15.0 15.0 11.5 13.2 15.0 8.2 8.4 0.4 1.1 10.0 13.2 15.0 15.0 14.8 15.0 15.0 15.0 15.0 15.0 15.0 15.0 15.0 15.0 15.0 15.0 15.0 15.0 15.0
15.0 15.0 15.0 15.0 14.3 14.2 15.0 15.0 14.6 14.8 15.0 15.0 13.5 15.0 7.7 8.2 15.0 5.6 0.0 2.1 14.3 8.0 0.0 0.0 15.0 15.0 15.0 15.0 14.7 14.6 10.6 10.0 3.9 0.1 0.7 8.3 15.0 9.5 10.2 3.3 15.0 15.0 15.0 15.0 15.0 15.0 15.0 15.0 15.0 15.0 15.0 15.0 15.0 15.0
15.0 14.0 15.0 15.0 15.0 14.2 15.0 14.1 15.0 15.0 15.0 15.0 15.0 14.6 5.9 11.1 15.0 1.6 5.6 3.7 6.8 15.0 0.1 0.0 2.1 15.0 15.0 14.3 9.7 9.4 8.9 6.9 2.5 0.1 1.9 12.6 13.9 10.6 12.1 3.0 15.0 15.0 15.0 15.0 15.0 15.0 15.0 15.0 15.0 15.0 15.0 15.0 15.0 15.0
15.0 15.0 15.0 15.0 15.0 15.0 15.0 15.0 15.0 15.0 15.0 14.1 15.0 12.7 5.5 15.0 14.5 10.9 15.0 15.0 15.0 5.0 4.7 0.1 0.1 0.5 15.0 1.0 0.1 13.0 8.9 6.5 6.7 0.3 7.5 15.0 15.0 7.9 0.0 11.1 15.0 15.0 15.0 15.0 15.0 15.0 15.0 15.0 15.0 15.0 15.0 15.0 15.0 15.0
15.0 15.0 11.3 13.5 14.6 15.0 11.8 15.0 12.9 15.0 13.3 10.6 7.8 3.5 4.2 5.6 0.9 8.0 15.0 15.0 12.1 1.0 0.4 0.2 2.9 0.3 15.0 10.5 11.6 3.7 2.1 0.0 0.3 0.0 0.0 0.1 0.0 0.0 0.1 3.7 15.0 15.0 15.0 15.0 15.0 15.0 15.0 15.0 15.0 15.0 15.0 15.0 15.0 15.0
15.0 15.0 9.5 15.0 13.5 14.8 15.0 13.9 7.0 3.3 3.8 2.6 4.3 0.1 0.0 5.1 15.0 6.9 6.2 0.0 0.1 0.2 2.7 2.8 0.1 0.0 0.1 8.1 0.0 0.0 14.6 3.2 0.1 0.2 1.0 0.7 0.3 0.4 15.0 15.0 15.0 15.0 15.0 15.0 15.0 14.8 15.0 15.0 15.0 15.0 15.0 15.0 15.0 15.0
15.0 15.0 6.2 12.9 15.0 15.0 15.0 9.5 10.2 13.8 15.0 14.3 0.1 0.0 0.2 12.5 11.4 0.1 0.0 0.0 7.7 2.4 15.0 10.9 15.0 0.0 0.3 3.9 0.0 0.2 4.7 0.7 3.0 0.1 0.0 0.3 0.6 0.5 13.6 15.0 15.0 15.0 15.0 15.0 15.0 15.0 14.9 15.0 15.0 15.0 13.0 11.5 1.8 0.6
13.9 14.1 13.9 9.8 7.2 14.6 15.0 8.4 15.0 15.0 15.0 15.0 2.5 8.8 1.7 0.1 5.2 11.5 5.3 11.5 15.0 12.2 1.5 7.2 6.5 9.0 0.0 12.7 0.2 0.0 0.0 0.1 0.7 13.6 2.9 1.9 0.8 15.0 15.0 13.9 14.5 15.0 15.0 15.0 15.0 15.0 15.0 15.0 15.0 11.4 8.3 1.3 0.3 0.4
6.5 12.6 15.0 15.0 15.0 14.2 11.3 11.1 13.3 15.0 15.0 15.0 15.0 13.1 14.9 15.0 15.0 15.0 0.9 2.0 1.1 0.6 0.5 0.0 0.0 0.0 0.0 0.0 0.0 0.0 0.0 0.2 7.8 0.3 0.4 0.8 13.6 15.0 13.8 15.0 15.0 15.0 14.8 15.0 15.0 14.1 15.0 4.3 1.6 0.8 0.3 0.2 0.3 0.4
15.0 15.0 15.0 15.0 15.0 15.0 15.0 15.0 15.0 15.0 15.0 15.0 15.0 15.0 15.0 14.0 10.8 2.7 3.1 2.8 1.4 0.4 0.2 0.0 2.9 0.0 1.2 15.0 6.6 14.5 1.3 14.3 0.3 0.6 0.9 2.5 0.7 1.3 3.5 7.8 13.8 1.1 0.7 0.4 0.2 0.3 0.3 0.2 0.1 0.1 0.1 0.1 0.2 0.2
15.0 15.0 15.0 15.0 15.0 15.0 15.0 15.0 15.0 15.0 13.3 15.0 15.0 3.5 2.4 1.3 2.1 0.9 1.4 0.9 0.2 0.1 0.0 0.8 15.0 15.0 15.0 15.0 15.0 15.0 10.9 4.2 10.0 2.0 1.0 2.3 2.3 3.7 1.9 1.4 0.6 0.2 0.2 0.2 0.1 0.1 0.1 0.1 0.1 0.1 0.1 0.1 0.1 0.1
15.0 15.0 15.0 15.0 15.0 15.0 15.0 15.0 15.0 15.0 15.0 15.0 11.5 1.8 1.0 0.6 0.2 0.4 0.3 0.3 0.8 10.0 15.0 15.0 15.0 12.2 11.9 15.0 15.0 4.2 15.0 8.9 0.5 0.6 0.7 3.4 1.4 1.0 0.9 0.7 0.3 0.3 0.3 0.3 0.2 0.2 0.1 0.1 0.1 0.1 0.1 0.1 0.1 0.1
15.0 15.0 15.0 15.0 15.0 15.0 15.0 15.0 15.0 15.0 15.0 15.0 0.7 1.6 0.8 1.1 0.3 0.4 0.3 0.4 10.2 15.0 15.0 15.0 15.0 1.1 15.0 15.0 8.7 15.0 2.0 0.6 0.6 0.6 2.1 4.2 2.2 1.2 1.4 1.3 0.5 0.3 0.4 0.5 0.3 0.2 0.1 0.1 0.2 0.2 0.2 0.1 1.3 13.8
15.0 15.0 15.0 15.0 15.0 15.0 15.0 15.0 15.0 15.0 4.4 2.6 2.2 0.2 0.9 0.8 0.3 0.5 0.6 10.1 15.0 15.0 15.0 8.2 15.0 15.0 8.8 11.1 2.5 0.6 0.6 0.3 0.3 0.5 0.4 0.4 0.5 0.6 0.4 0.4 0.4 0.4 0.4 0.4 0.4 0.3 0.4 0.5 1.7 12.7 15.0 15.0 15.0 15.0
15.0 15.0 15.0 15.0 15.0 15.0 15.0 15.0 15.0 15.0 2.0 3.8 4.0 5.2 3.0 0.7 4.8 0.6 1.0 15.0 15.0 15.0 15.0 15.0 15.0 8.8 0.8 0.7 0.4 0.2 0.2 0.8 0.9 0.5 0.9 0.6 0.7 0.8 0.8 0.7 0.6 0.7 0.9 0.7 1.0 8.4 15.0 15.0 15.0 15.0 15.0 15.0 15.0 15.0
15.0 15.0 15.0 15.0 15.0 15.0 15.0 15.0 15.0 15.0 14.8 2.5 13.7 4.6 12.0 0.8 0.7 0.5 1.5 15.0 15.0 15.0 6.2 1.9 0.2 0.2 0.7 0.5 9.5 10.1 5.7 11.5 15.0 6.3 1.1 1.3 2.2 1.4 0.6 1.4 2.0 1.4 11.3 15.0 15.0 15.0 15.0 15.0 15.0 15.0 15.0 15.0 15.0 13.3
15.0 15.0 15.0 15.0 15.0 15.0 15.0 15.0 15.0 15.0 15.0 8.3 11.8 15.0 5.0 15.0 11.0 2.7 10.7 15.0 15.0 0.7 0.6 0.5 0.3 0.2 2.2 2.8 14.2 15.0 11.1 13.9 12.2 14.9 14.8 2.5 4.2 15.0 14.8 14.8 15.0 15.0 15.0 15.0 15.0 15.0 15.0 15.0 15.0 15.0 15.0 12.6 10.4 9.7
15.0 15.0 15.0 15.0 15.0 15.0 15.0 15.0 15.0 15.0 15.0 12.9 11.8 15.0 15.0 15.0 15.0 15.0 15.0 15.0 1.6 0.3 0.4 0.8 1.2 6.1 13.6 3.3 12.1 15.0 11.8 15.0 15.0 15.0 15.0 15.0 15.0 15.0 15.0 15.0 15.0 15.0 15.0 15.0 15.0 14.9 15.0 15.0 15.0 15.0 15.0 13.8 15.0 13.4
15.0 15.0 15.0 15.0 15.0 15.0 1.7 9.5 9.0 5.8 11.6 15.0 15.0 15.0 15.0 15.0 15.0 15.0 15.0 4.5 0.4 0.3 2.1 15.0 10.8 15.0 7.8 8.0 15.0 15.0 15.0 15.0 15.0 15.0 15.0 15.0 15.0 15.0 15.0 15.0 15.0 15.0 15.0 15.0 15.0 15.0 12.1 10.2 13.9 14.2 15.0 15.0 12.6 13.1
15.0 15.0 15.0 15.0 15.0 0.5 12.4 15.0 15.0 15.0 15.0 15.0 15.0 15.0 15.0 15.0 15.0 15.0 3.8 9.9 1.1 3.3 7.0 3.1 15.0 15.0 15.0 15.0 15.0 15.0 15.0 15.0 15.0 15.0 15.0 15.0 15.0 15.0 15.0 15.0 15.0 15.0 15.0 15.0 15.0 15.0 14.6 5.5 7.1 12.5 8.4 10.6 12.4 15.0
15.0 14.7 14.9 15.0 15.0 15.0 15.0 15.0 15.0 15.0 14.6 15.0 15.0 14.5 15.0 15.0 15.0 15.0 14.2 3.4 2.9 1.1 2.3 11.2 15.0 15.0 15.0 15.0 15.0 15.0 15.0 15.0 15.0 15.0 15.0 15.0 15.0 15.0 15.0 15.0 15.0 15.0 15.0 12.2 14.0 15.0 15.0 15.0 15.0 15.0 15.0 15.0 15.0 15.0
8.7 1.0 4.6 6.6 13.2 15.0 15.0 15.0 15.0 15.0 15.0 9.6 7.6 15.0 15.0 15.0 14.4 2.2 12.9 5.3 7.2 4.8 6.5 13.5 15.0 15.0 15.0 15.0 15.0 15.0 15.0 15.0 15.0 15.0 15.0 15.0 15.0 15.0 15.0 15.0 15.0 15.0 15.0 10.8 11.4 10.7 9.9 10.4 9.7 14.2 14.9 15.0 14.5 13.2
10.7 2.8 14.4 14.8 15.0 15.0 15.0 15.0 15.0 15.0 11.0 8.2 15.0 15.0 15.0 14.8 4.5 1.5 1.4 3.7 14.3 13.6 15.0 15.0 15.0 15.0 15.0 15.0 15.0 15.0 15.0 15.0 15.0 15.0 15.0 15.0 15.0 15.0 15.0 15.0 15.0 15.0 15.0 15.0 14.8 15.0 14.9 14.4 13.8 14.5 15.0 15.0 11.1 8.6
13.5 15.0 15.0 10.0 15.0 15.0 15.0 15.0 14.3 4.6 2.6 12.8 15.0 14.7 15.0 15.0 1.6 0.7 1.2 2.9 13.1 15.0 15.0 15.0 15.0 15.0 15.0 15.0 15.0 15.0 15.0 15.0 15.0 15.0 15.0 15.0 15.0 15.0 15.0 14.8 7.8 4.3 8.3 10.5 6.4 10.3 7.8 7.0 7.2 8.1 7.5 8.3 7.9 7.9
14.8 15.0 15.0 15.0 15.0 14.1 1.9 2.3 2.0 2.6 5.3 15.0 15.0 14.0 2.1 1.5 0.5 0.6 0.4 3.8 15.0 15.0 15.0 15.0 14.6 15.0 14.8 14.6 15.0 15.0 15.0 15.0 15.0 15.0 15.0 15.0 15.0 3.5 14.5 13.5 14.6 13.8 11.9 5.5 5.0 3.3 3.1 1.9 4.6 3.9 4.9 4.3 5.1 4.6
11.9 15.0 15.0 15.0 10.9 1.7 0.4 0.4 0.7 0.8 5.0 1.6 11.8 9.6 3.5 0.3 0.1 0.3 0.8 7.9 15.0 15.0 12.6 13.4 10.5 15.0 15.0 15.0 13.1 11.1 8.0 7.4 5.8 9.8 15.0 15.0 13.4 4.4 5.4 4.6 4.3 5.1 7.5 7.3 6.7 11.2 14.4 8.9 8.9 6.9 7.7 8.7 8.7 8.2
15.0 15.0 15.0 15.0 1.4 0.5 0.3 1.0 11.5 13.0 12.8 1.1 13.3 7.1 0.7 0.3 0.3 0.5 1.0 0.9 4.6 8.2 15.0 15.0 15.0 15.0 15.0 15.0 15.0 15.0 12.4 5.8 8.1 9.6 12.9 7.6 5.1 4.1 4.8 10.2 10.8 10.2 9.6 11.5 14.4 15.0 15.0 14.9 15.0 15.0 15.0 15.0 15.0 14.3
15.0 15.0 15.0 4.0 0.5 1.4 1.9 11.5 15.0 10.9 9.7 15.0 9.4 15.0 14.4 13.9 2.8 1.4 0.9 1.4 5.9 15.0 4.9 11.9 6.3 4.4 8.4 6.2 9.6 12.2 4.1 9.0 8.6 7.6 12.9 14.8 15.0 15.0 15.0 15.0 15.0 12.9 12.4 11.1 11.7 12.0 13.7 15.0 15.0 15.0 15.0 15.0 15.0 15.0
15.0 15.0 15.0 14.9 3.3 4.1 4.2 14.3 15.0 15.0 14.5 11.8 5.4 4.6 5.1 12.0 2.3 1.2 2.1 2.0 0.7 0.8 3.4 7.2 11.2 15.0 15.0 15.0 15.0 8.5 10.7 15.0 8.0 10.2 6.4 8.7 8.3 8.4 9.3 7.1 7.1 7.2 7.5 7.7 9.2 9.0 13.3 15.0 15.0 15.0 15.0 15.0 15.0 15.0